Location: ?????????
(54.7630°N, 39.4991°E)
Time: 01:07:22
(UTC+00:00)

Cosmos 1447 Rocket - Pass Details

Date: 14 April 2026
Orbit: 952 x 996 km, 82.9° (Epoch: 20 May)

Event Time Altitude Azimuth Distance (km) Brightness Sun altitude
Rises 19:41:17 0° 348° (NNW) 3,716 8.9 -22.2°
Reaches altitude 10° 19:43:50 10° 349° (N) 2,758 7.9 -22.4°
Maximum altitude 19:50:11 85° 79° (E) 991 4.4 -22.8°
Enters shadow 19:52:11 47° 164° (SSE) 1,279 4.6 -22.9°
